Wind_Speed
19 20 19 20 20 20 22 24 24 22 20 19 18 17 16 15 13 12 12 11 9 7 6 6 7 7 7 7 7 7 7 8 7 7 7 6 6 5 5 4 4 4 4 4 5 5 5 5 5
19 18 18 20 20 20 23 25 24 22 20 20 19 18 16 15 14 13 12 11 9 7 7 6 6 6 6 6 6 7 7 7 7 7 6 6 6 5 5 4 4 4 4 4 4 5 5 5 4
18 19 18 19 20 22 23 24 23 21 20 21 20 18 16 15 14 13 12 11 9 7 7 7 6 6 6 6 6 6 7 7 7 7 6 6 5 5 5 4 4 3 3 4 4 4 4 5 4
17 18 18 19 21 22 23 23 23 22 21 21 20 18 16 14 13 12 12 11 9 8 8 8 7 7 6 6 6 6 6 6 6 6 6 6 5 5 4 4 3 3 3 4 4 4 4 4 4
16 17 18 18 20 22 23 23 24 24 22 21 19 18 16 14 13 12 11 10 10 9 9 8 8 7 7 6 6 6 5 5 6 6 5 5 5 4 4 3 3 3 3 3 4 4 4 3 3
14 15 17 19 21 22 23 24 24 24 23 21 20 18 17 15 14 13 12 11 10 10 10 9 8 7 7 6 6 5 4 4 5 5 5 4 4 4 4 4 3 3 3 3 3 3 3 4 4
13 14 16 18 20 21 23 24 24 24 22 22 20 19 18 16 14 13 12 11 10 10 10 9 8 8 7 7 6 5 5 4 4 4 4 4 5 5 5 4 3 3 3 3 3 3 3 4 4
11 13 15 18 20 20 21 23 23 23 22 21 21 20 20 18 16 14 13 12 11 11 11 10 9 8 7 7 6 6 6 5 4 4 4 4 4 4 4 4 3 4 3 3 3 3 4 4 4
9 12 14 16 18 19 21 22 22 21 21 21 21 21 20 19 17 16 14 13 13 12 11 10 9 8 7 6 6 6 6 5 4 4 3 3 3 3 4 3 3 4 3 3 3 3 4 3 3
8 10 12 14 16 17 19 20 21 21 20 20 21 21 20 18 17 16 15 14 13 13 12 11 10 9 7 6 5 6 6 5 5 4 3 3 3 3 3 3 3 3 3 3 3 3 3 3 3
6 8 11 12 14 16 17 19 20 20 19 19 20 20 20 19 17 16 15 14 14 13 13 12 11 9 8 6 5 5 5 5 5 4 3 3 3 3 2 3 3 3 3 3 3 2 3 2 2
3 6 9 11 12 13 16 17 19 19 19 18 19 19 20 19 17 17 16 15 14 14 13 12 11 9 8 6 5 5 5 4 4 3 3 3 2 2 2 2 3 3 3 3 2 2 2 2 2
2 5 7 9 11 12 14 15 17 18 18 19 18 18 18 18 17 17 16 15 15 13 12 11 11 9 7 7 6 5 5 4 3 3 2 2 2 1 1 2 3 3 2 2 2 2 2 2 2
1 3 6 8 9 11 12 13 14 16 17 18 17 17 17 17 17 18 17 16 15 14 12 11 10 9 7 7 6 4 4 4 3 2 2 2 2 2 2 2 2 2 2 2 2 2 2 2 2
3 3 5 6 8 9 10 11 12 14 16 17 17 17 17 17 17 17 17 16 15 14 13 11 11 9 7 6 5 4 3 3 2 2 2 1 1 1 2 3 3 3 3 3 3 3 3 3 3
5 3 3 3 5 6 8 10 10 12 13 15 15 16 17 17 16 16 16 15 15 14 13 12 12 10 8 6 5 4 2 2 2 2 2 1 0 1 2 2 3 3 3 3 3 4 4 4 3
7 5 3 1 2 3 5 7 9 10 11 12 14 15 16 16 16 15 15 15 14 14 13 12 11 10 8 6 5 4 3 1 1 1 0 0 0 1 2 2 3 3 4 5 5 5 4 4 3
9 7 5 3 1 1 3 5 7 8 9 11 13 14 15 15 16 15 15 14 14 13 13 12 11 10 8 6 3 3 2 1 1 1 1 1 1 1 3 3 3 4 4 5 5 5 5 5 5
11 9 8 6 5 3 3 5 6 8 9 10 12 13 15 15 15 15 15 14 13 12 11 11 11 11 8 6 4 3 3 2 2 2 2 2 3 2 3 3 4 4 5 6 6 6 6 6 6
13 11 10 9 8 7 6 5 6 8 9 10 11 12 13 14 14 15 14 14 12 11 11 11 11 10 8 6 5 3 2 3 3 3 3 3 4 4 4 4 5 5 6 6 7 8 8 8 8
15 13 12 11 10 10 9 7 8 9 10 10 11 12 13 13 13 13 13 13 12 10 10 11 10 9 8 6 5 4 4 4 4 4 4 4 4 5 5 5 5 6 6 7 8 9 9 10 10
17 15 14 13 13 12 12 10 9 10 10 10 11 12 12 12 13 13 12 12 12 10 10 10 10 9 8 7 6 5 4 4 4 4 4 4 4 5 6 6 6 6 7 8 9 10 10 11 11
18 17 16 14 14 14 13 13 11 11 10 10 11 11 11 13 13 13 13 12 12 10 10 10 10 9 8 7 6 5 4 4 5 5 5 5 5 5 6 7 7 8 8 9 10 10 11 11 12
19 18 17 16 15 15 14 14 12 12 12 11 11 10 12 13 14 14 13 12 12 11 11 10 10 9 8 7 7 6 5 5 5 5 5 5 5 5 5 7 7 8 8 8 8 9 11 11 12
20 19 18 17 17 17 15 14 12 11 11 10 10 10 11 13 14 14 13 13 12 13 12 11 11 9 7 7 7 7 6 6 6 5 5 5 5 5 6 6 7 8 7 8 9 9 10 11 13
21 19 19 18 18 17 17 15 13 11 11 10 9 11 12 13 14 14 14 13 13 14 13 12 11 10 8 8 8 8 7 7 6 5 5 5 5 5 6 7 7 8 8 9 9 10 11 12 13
23 22 20 20 19 19 18 16 14 12 12 11 11 12 12 12 14 16 15 13 14 14 14 11 10 9 9 9 9 8 8 7 6 5 6 6 6 7 7 8 8 9 10 10 11 11 12 13 14
25 24 22 21 21 20 19 17 15 13 13 13 12 12 12 13 14 15 15 15 15 15 15 13 11 10 10 9 9 8 8 8 7 7 7 7 7 8 8 9 9 10 11 11 12 12 13 14 14
27 26 24 23 21 21 20 18 16 14 14 13 13 13 13 14 14 15 14 14 15 15 14 12 11 10 9 8 8 8 8 8 8 8 9 9 9 9 9 9 10 11 11 12 12 13 13 14 14
29 27 25 24 23 22 22 19 16 15 15 14 14 14 14 14 14 15 15 14 14 14 13 12 11 10 9 8 8 8 8 9 9 10 10 10 10 10 10 11 11 12 12 13 13 14 14 14 15
Wind_Direction
71 69 69 67 65 62 62 61 58 57 56 56 54 52 51 50 50 51 51 50 49 51 57 65 72 76 78 80 79 75 74 76 74 73 74 76 76 74 79 78 74 71 75 81 87 90 90 88 92
69 67 68 66 66 62 61 58 54 50 49 50 49 47 46 48 49 50 50 49 47 50 58 66 70 72 74 77 78 76 75 76 74 74 76 78 78 75 79 80 77 71 75 84 87 87 87 86 91
70 69 69 69 68 65 61 58 54 48 45 46 45 44 43 43 46 48 49 48 46 50 59 65 68 69 70 73 76 76 78 79 79 77 77 77 76 74 74 75 76 73 80 89 87 88 87 87 91
72 70 69 71 70 67 63 59 54 48 44 43 44 43 40 39 41 44 46 44 43 49 57 63 66 67 71 74 77 79 81 84 82 79 81 78 74 72 75 72 73 76 82 93 90 89 88 87 92
74 71 69 68 67 66 63 59 53 46 42 42 43 42 40 37 38 42 43 42 41 46 54 58 62 65 67 74 78 78 82 85 84 81 80 78 74 73 76 74 74 82 94 97 96 94 92 94 103
75 71 68 65 66 63 59 56 51 44 40 39 40 39 39 35 34 39 41 40 40 45 49 54 55 59 63 67 70 73 81 86 84 83 79 73 75 78 76 77 84 92 102 110 105 103 104 102 103
72 70 68 65 64 62 59 54 49 44 38 37 37 37 37 34 31 35 38 39 40 41 45 51 55 58 59 64 69 72 73 81 83 84 81 76 77 79 74 76 87 94 103 115 118 115 110 110 108
71 67 66 65 63 60 57 52 47 42 36 34 35 35 34 32 30 31 35 36 37 39 43 49 53 54 54 61 69 73 70 77 86 88 83 83 83 80 77 78 90 98 106 118 122 122 120 119 116
68 66 64 63 60 57 53 50 45 41 36 32 31 31 30 29 28 29 30 33 36 38 43 44 44 43 47 57 71 79 77 80 85 93 93 91 88 87 84 87 91 104 114 122 128 129 126 126 124
65 67 68 68 63 57 51 48 44 40 36 32 30 28 26 25 24 26 28 31 34 36 38 37 37 38 41 55 71 76 73 72 79 90 98 95 86 91 93 95 105 112 111 113 123 132 137 133 132
64 68 71 69 64 57 51 47 42 40 38 33 29 26 24 25 23 23 25 28 30 32 33 34 37 40 43 53 71 73 68 68 76 86 97 98 96 101 104 101 111 124 114 115 122 122 139 143 139
43 70 74 68 65 59 52 46 42 38 37 34 29 25 25 24 22 23 25 27 28 29 30 32 36 41 47 54 67 72 65 63 65 79 100 108 110 110 114 122 122 132 132 124 116 117 133 134 147
51 81 80 73 67 61 53 45 42 38 35 32 28 27 27 25 22 23 25 25 26 26 26 31 34 38 44 50 58 65 61 59 56 74 94 102 127 138 141 132 137 137 149 143 144 153 161 158 166
120 108 92 78 65 58 50 44 39 37 33 31 30 28 24 21 18 18 21 23 22 23 26 27 27 33 38 42 48 48 54 59 60 81 106 113 118 140 162 171 172 166 172 172 167 174 174 180 175
173 134 107 84 67 56 47 40 34 33 31 30 29 23 20 20 17 17 17 19 20 21 22 22 23 27 35 32 38 39 43 60 68 91 116 145 139 152 183 195 199 190 187 188 189 184 182 189 187
195 167 128 89 66 50 42 37 31 27 26 26 25 20 16 15 15 14 14 15 17 19 19 19 22 25 25 22 24 26 31 39 60 82 92 122 156 198 193 194 204 201 199 198 193 190 189 192 199
199 191 173 151 73 46 36 30 25 21 18 18 18 15 13 12 10 9 10 11 11 14 14 12 14 14 11 7 20 27 33 32 52 87 59 96 197 210 211 210 204 203 210 207 203 205 210 216 220
215 215 217 227 237 352 12 15 13 6 7 9 7 7 8 7 5 4 4 2 3 6 8 6 6 7 4 356 358 9 7 7 337 354 287 251 219 215 219 220 223 221 221 217 214 218 221 230 237
229 233 240 248 257 279 311 337 352 352 353 356 358 1 4 3 3 0 358 355 356 358 360 1 3 4 5 354 340 329 329 318 299 293 292 264 252 239 227 236 232 233 237 233 234 235 236 240 248
233 239 245 254 261 271 293 316 331 338 342 343 351 356 359 360 358 358 354 352 351 353 354 355 359 2 1 355 340 324 310 288 278 281 278 275 265 255 243 243 245 246 245 242 242 242 245 249 254
237 241 246 253 261 272 287 299 311 320 332 338 343 347 350 353 354 353 351 353 349 347 350 351 353 355 354 354 354 324 308 297 285 276 266 268 266 261 256 254 251 248 251 254 247 247 249 254 257
236 241 247 253 259 270 280 286 297 307 321 330 334 337 341 343 345 344 347 345 342 344 348 347 348 352 349 346 339 331 319 309 301 293 279 274 262 259 258 258 256 256 257 254 253 253 255 260 261
235 241 247 253 259 266 274 283 292 300 310 316 323 331 337 340 339 339 340 339 335 338 342 343 339 343 345 343 333 334 333 314 305 299 286 277 269 273 262 260 263 266 265 263 261 260 263 265 267
236 241 246 251 255 259 268 277 287 297 305 310 317 329 339 341 339 336 334 331 329 331 335 338 332 332 336 341 335 329 320 313 304 298 287 281 276 277 269 257 264 270 271 268 268 266 266 265 267
237 241 246 250 253 258 265 272 285 298 304 307 315 325 337 343 340 333 331 329 330 332 330 325 327 326 327 329 330 324 319 308 299 292 288 287 282 282 277 267 269 272 274 272 273 273 269 269 271
238 242 247 252 254 259 263 268 280 290 299 304 312 321 328 333 337 333 328 330 334 332 328 321 323 323 321 321 322 320 315 306 297 291 284 283 284 283 280 277 279 279 278 272 272 273 274 275 276
237 240 245 250 254 257 261 267 271 278 288 298 309 314 322 329 333 335 336 335 335 333 330 324 322 321 318 317 318 316 313 304 292 284 280 278 277 280 280 280 282 284 282 278 273 272 275 276 279
236 239 242 247 252 256 260 266 273 275 279 291 304 310 312 322 330 334 333 332 331 332 330 322 320 318 315 312 313 314 309 304 292 284 285 281 279 279 281 285 286 286 284 280 278 275 277 278 279
236 239 243 248 253 257 262 266 271 271 275 285 297 303 308 314 322 328 329 331 334 331 329 324 318 315 314 312 310 307 307 303 297 291 291 286 284 279 277 283 288 289 287 287 286 281 280 280 283
236 239 243 247 253 257 262 266 266 269 273 279 287 296 305 311 316 324 330 331 331 333 335 334 327 323 318 312 309 307 304 305 301 296 295 291 286 283 281 282 288 290 289 288 287 283 283 284 285
Height
5905 5904 5903 5902 5902 5900 5897 5896 5895 5894 5894 5893 5892 5891 5890 5890 5890 5892 5889 5887 5887 5886 5886 5886 5885 5885 5885 5886 5886 5887 5887 5888 5888 5889 5890 5890 5891 5891 5892 5893 5893 5894 5894 5894 5895 5895 5895 5896 5896
5908 5907 5907 5905 5903 5901 5899 5898 5897 5897 5896 5894 5893 5893 5892 5891 5891 5890 5889 5888 5888 5888 5887 5887 5886 5886 5886 5886 5887 5887 5888 5888 5889 5889 5890 5891 5892 5892 5893 5893 5894 5894 5895 5895 5896 5896 5896 5896 5897
5911 5910 5910 5908 5905 5904 5903 5901 5900 5899 5898 5897 5896 5895 5894 5894 5893 5892 5891 5890 5890 5889 5888 5887 5887 5887 5887 5887 5887 5888 5888 5889 5889 5890 5891 5891 5892 5893 5893 5894 5895 5895 5895 5896 5896 5897 5897 5897 5898
5914 5913 5912 5911 5908 5907 5906 5904 5903 5902 5901 5899 5898 5898 5897 5896 5895 5894 5892 5892 5891 5890 5889 5888 5888 5888 5887 5888 5888 5888 5889 5889 5890 5891 5891 5892 5893 5893 5894 5895 5895 5896 5896 5896 5897 5897 5898 5898 5899
5916 5916 5914 5912 5911 5910 5908 5907 5906 5904 5903 5902 5901 5900 5899 5898 5896 5895 5894 5893 5892 5891 5890 5889 5888 5888 5888 5888 5888 5889 5889 5890 5890 5891 5892 5892 5893 5894 5894 5895 5896 5896 5897 5897 5898 5898 5899 5899 5900
5918 5917 5916 5914 5913 5912 5911 5909 5908 5907 5906 5905 5903 5902 5901 5900 5898 5897 5896 5895 5893 5892 5891 5890 5889 5889 5889 5889 5889 5889 5890 5890 5891 5891 5892 5893 5893 5894 5894 5895 5896 5896 5897 5898 5898 5899 5899 5900 5900
5920 5919 5918 5917 5916 5915 5914 5912 5911 5910 5909 5908 5906 5904 5903 5902 5900 5898 5897 5896 5894 5893 5892 5891 5890 5890 5890 5889 5889 5890 5890 5891 5891 5892 5892 5893 5894 5894 5895 5896 5896 5897 5897 5898 5899 5900 5900 5901 5901
5921 5921 5920 5919 5918 5918 5917 5915 5914 5913 5911 5910 5908 5906 5904 5903 5902 5900 5898 5897 5895 5894 5893 5892 5891 5890 5890 5890 5890 5890 5891 5891 5892 5892 5893 5893 5894 5895 5895 5896 5896 5897 5898 5899 5899 5900 5901 5901 5902
5923 5924 5922 5921 5920 5920 5919 5917 5917 5916 5914 5912 5910 5908 5906 5905 5903 5901 5900 5898 5896 5895 5894 5893 5892 5891 5891 5891 5891 5891 5891 5891 5892 5892 5893 5894 5895 5895 5896 5896 5897 5898 5899 5899 5900 5901 5901 5902 5903
5925 5924 5924 5923 5922 5922 5921 5920 5919 5918 5916 5914 5912 5910 5908 5906 5904 5903 5901 5900 5898 5896 5895 5894 5893 5892 5892 5891 5891 5892 5892 5892 5892 5893 5893 5894 5895 5896 5896 5897 5898 5898 5899 5900 5901 5901 5902 5903 5903
5926 5926 5925 5925 5924 5923 5923 5922 5920 5920 5919 5917 5914 5912 5909 5908 5906 5905 5903 5901 5899 5898 5896 5895 5894 5893 5893 5893 5892 5893 5893 5893 5893 5893 5894 5895 5895 5896 5897 5897 5898 5899 5900 5900 5901 5902 5902 5903 5904
5927 5927 5926 5926 5925 5925 5924 5923 5922 5921 5921 5919 5916 5913 5911 5910 5908 5906 5904 5902 5901 5899 5898 5896 5895 5894 5894 5894 5893 5893 5894 5894 5894 5894 5894 5895 5896 5897 5897 5898 5899 5899 5900 5901 5901 5902 5903 5904 5904
5928 5928 5928 5927 5927 5926 5926 5925 5924 5923 5922 5920 5918 5915 5913 5912 5910 5908 5906 5904 5902 5900 5899 5898 5896 5896 5895 5895 5895 5894 5894 5895 5895 5895 5895 5895 5896 5897 5898 5898 5899 5900 5901 5902 5902 5903 5903 5904 5904
5929 5929 5928 5928 5927 5927 5927 5926 5926 5925 5924 5922 5920 5918 5916 5914 5912 5910 5908 5905 5903 5902 5900 5899 5897 5897 5896 5896 5896 5895 5895 5895 5895 5895 5896 5896 5896 5897 5898 5899 5899 5900 5901 5902 5902 5903 5903 5904 5905
5929 5929 5929 5929 5928 5928 5929 5928 5927 5926 5925 5924 5922 5920 5918 5916 5914 5912 5909 5907 5905 5903 5901 5900 5898 5897 5897 5897 5896 5896 5896 5896 5896 5896 5896 5896 5897 5897 5898 5899 5899 5900 5901 5901 5902 5903 5904 5904 5905
5928 5929 5929 5929 5929 5929 5930 5930 5929 5928 5926 5925 5923 5922 5920 5918 5915 5913 5910 5908 5906 5904 5902 5901 5900 5898 5897 5897 5896 5896 5895 5895 5896 5896 5896 5896 5897 5897 5898 5898 5899 5900 5901 5901 5902 5903 5904 5904 5905
5928 5929 5929 5929 5929 5929 5930 5930 5930 5928 5927 5926 5924 5922 5920 5918 5916 5914 5912 5909 5907 5905 5903 5902 5900 5899 5898 5896 5896 5896 5896 5896 5896 5896 5896 5896 5897 5897 5898 5898 5899 5899 5900 5901 5902 5902 5903 5904 5904
5927 5928 5928 5929 5929 5929 5930 5930 5930 5929 5928 5926 5925 5923 5920 5918 5917 5914 5912 5910 5908 5906 5904 5902 5901 5899 5898 5897 5896 5896 5896 5896 5896 5896 5896 5896 5896 5896 5897 5898 5898 5899 5900 5900 5901 5902 5902 5903 5904
5926 5927 5928 5928 5929 5929 5929 5929 5930 5929 5928 5926 5925 5922 5921 5919 5916 5914 5912 5910 5908 5906 5905 5903 5901 5899 5898 5897 5896 5896 5896 5896 5896 5895 5895 5896 5896 5896 5897 5897 5898 5898 5899 5899 5900 5901 5901 5902 5903
5925 5926 5927 5927 5928 5928 5929 5929 5929 5928 5927 5926 5924 5923 5921 5919 5916 5914 5912 5909 5908 5906 5905 5903 5902 5900 5898 5897 5896 5895 5895 5895 5895 5895 5895 5895 5895 5895 5896 5897 5897 5898 5898 5898 5899 5899 5900 5901 5901
5924 5925 5926 5926 5927 5927 5928 5928 5928 5928 5927 5926 5924 5922 5920 5918 5916 5914 5912 5910 5908 5906 5904 5903 5902 5900 5898 5897 5896 5895 5895 5894 5894 5894 5894 5894 5893 5894 5895 5895 5896 5896 5896 5897 5897 5898 5898 5899 5899
5922 5923 5924 5925 5925 5926 5927 5927 5928 5927 5926 5925 5923 5921 5920 5918 5915 5913 5911 5909 5907 5905 5904 5902 5901 5900 5898 5896 5895 5895 5894 5894 5893 5893 5893 5893 5893 5893 5893 5894 5894 5894 5895 5895 5895 5896 5896 5897 5897
5920 5920 5922 5923 5923 5924 5925 5925 5927 5925 5925 5924 5922 5920 5919 5917 5915 5913 5910 5908 5906 5904 5903 5901 5900 5899 5897 5896 5895 5894 5893 5893 5893 5892 5892 5892 5892 5892 5892 5892 5892 5893 5893 5893 5893 5894 5894 5894 5895
5917 5918 5920 5921 5921 5922 5923 5924 5924 5923 5923 5922 5921 5919 5918 5916 5914 5912 5910 5907 5905 5903 5902 5900 5899 5898 5897 5896 5895 5894 5893 5892 5892 5892 5891 5891 5891 5890 5890 5891 5891 5891 5891 5891 5891 5891 5891 5892 5892
5914 5916 5918 5918 5919 5920 5921 5921 5922 5922 5921 5920 5919 5918 5917 5915 5913 5911 5908 5906 5903 5902 5900 5899 5898 5896 5895 5895 5894 5893 5892 5891 5890 5890 5890 5890 5889 5889 5889 5889 5889 5889 5889 5889 5889 5889 5889 5889 5889
5911 5913 5915 5916 5916 5917 5918 5918 5920 5920 5919 5918 5917 5916 5915 5913 5911 5909 5907 5905 5902 5900 5898 5897 5896 5895 5894 5893 5893 5892 5890 5890 5889 5889 5889 5888 5888 5888 5888 5888 5887 5887 5887 5887 5887 5886 5886 5886 5886
5907 5909 5911 5912 5913 5914 5915 5916 5917 5917 5917 5916 5916 5915 5913 5912 5910 5908 5905 5903 5901 5898 5896 5895 5894 5893 5892 5892 5891 5890 5889 5888 5887 5887 5887 5887 5887 5887 5886 5886 5885 5885 5885 5884 5884 5884 5883 5883 5883
5903 5905 5907 5908 5909 5911 5912 5913 5915 5915 5915 5915 5914 5913 5912 5911 5909 5906 5904 5901 5899 5897 5895 5893 5892 5891 5890 5890 5889 5888 5887 5886 5886 5886 5885 5885 5885 5885 5884 5884 5883 5883 5882 5881 5881 5881 5880 5880 5879
5899 5901 5902 5904 5906 5908 5909 5912 5912 5912 5913 5912 5912 5911 5910 5909 5907 5904 5902 5900 5898 5895 5893 5892 5890 5889 5888 5888 5887 5886 5886 5885 5884 5884 5884 5883 5883 5882 5882 5881 5881 5880 5879 5879 5878 5878 5877 5876 5876
5893 5896 5898 5901 5902 5903 5905 5910 5908 5909 5909 5910 5909 5909 5908 5906 5905 5903 5901 5899 5896 5894 5892 5890 5889 5888 5887 5886 5885 5884 5884 5883 5883 5882 5881 5881 5880 5880 5879 5879 5878 5877 5876 5876 5875 5874 5873 5873 5872